Weather History for KEWR - April, 2014

Change the Weather History Date:

Monday, April 14, 2014

  Actual Average Record
Temperature  
Mean Temperature 71 °F 52 °F  
Max Temperature 80 °F 62 °F 88 °F (1941)
Min Temperature 62 °F 43 °F 26 °F (1950)
Degree Days  
Heating Degree Days 0 13  
Month to date heating degree days 154 213  
Since 1 July heating degree days 4863 4557  
Cooling Degree Days 6 0  
Month to date cooling degree days 8 0  
Year to date cooling degree days 8 1  
Growing Degree Days 21 (Base 50)    
Moisture  
Dew Point 54 °F    
Average Humidity 57    
Maximum Humidity 78    
Minimum Humidity 35    
Precipitation  
Precipitation 0.00 in 0.14 in 0.90 in (1979)
Month to date precipitation 1.17 2.06  
Year to date precipitation 12.54 12.66  
Snow  
Snow 0.00 in 0.00 in 0.70 in (1950)
Month to date snowfall 0.0 0.6  
Since 1 July snowfall 60.7 28.2  
Snow Depth 0.00 in    
Sea Level Pressure  
Sea Level Pressure 29.94 in    
Wind  
Wind Speed 15 mph (South)    
Max Wind Speed 30 mph    
Max Gust Speed 38 mph    
Visibility 10 miles    
Events      
T = Trace of Precipitation, MM = Missing Value Source: NWS Daily Summary

Daily Weather History Graph

Daily Weather History Graph

Search for Another Location

Airport or City:

Trip Planner

Search our weather history database for the weather conditions in past years. The results will help you decide how hot, cold, wet, or windy it might be!

Date:

Astronomy

Apr. 14, 2014 Rise Set
Actual Time 6:19 AM EDT 7:34 PM EDT
Civil Twilight 5:51 AM EDT 8:03 PM EDT
Nautical Twilight 5:17 AM EDT 8:37 PM EDT
Astronomical Twilight 4:41 AM EDT 9:13 PM EDT
Moon 7:11 PM EDT (4/14) 5:50 AM EDT (4/14)
Length of Visible Light 14h 12m
Length of Day
13h 15m
Full, 100% of the Moon is Illuminated
Apr 14
Full
Apr 15
Full
Apr 22
Last Quarter
Apr 29
New
May 6
First Quarter

Hourly Weather History & Observations

Time (EDT) Temp. Dew Point Humidity Pressure Visibility Wind Dir Wind Speed Gust Speed Precip Events Conditions
12:51 AM 64.9 °F 55.0 °F 70% 30.02 in 10.0 mi SSW 13.8 mph - N/A   Scattered Clouds
1:51 AM 64.4 °F 55.4 °F 73% 30.01 in 10.0 mi SSW 12.7 mph - N/A   Scattered Clouds
2:51 AM 64.9 °F 55.9 °F 73% 30.00 in 10.0 mi South 11.5 mph - N/A   Scattered Clouds
3:51 AM 64.0 °F 55.9 °F 75% 29.99 in 10.0 mi South 9.2 mph - N/A   Mostly Cloudy
4:51 AM 63.0 °F 55.9 °F 78% 29.99 in 10.0 mi South 8.1 mph - N/A   Mostly Cloudy
5:51 AM 63.0 °F 55.9 °F 78% 29.98 in 10.0 mi South 8.1 mph - N/A   Mostly Cloudy
6:51 AM 62.1 °F 55.0 °F 78% 29.99 in 10.0 mi South 11.5 mph - N/A   Mostly Cloudy
7:51 AM 64.0 °F 55.0 °F 73% 29.99 in 10.0 mi South 13.8 mph - N/A   Mostly Cloudy
8:51 AM 66.0 °F 55.0 °F 68% 29.99 in 10.0 mi SSW 12.7 mph 20.7 mph N/A   Mostly Cloudy
9:51 AM 68.0 °F 55.9 °F 65% 29.99 in 10.0 mi South 16.1 mph 21.9 mph N/A   Mostly Cloudy
10:51 AM 73.4 °F 57.2 °F 57% 29.99 in 10.0 mi South 15.0 mph 21.9 mph N/A   Mostly Cloudy
11:51 AM 75.0 °F 55.9 °F 51% 29.96 in 10.0 mi SSW 18.4 mph 29.9 mph N/A   Mostly Cloudy
12:51 PM 75.9 °F 54.0 °F 46% 29.95 in 10.0 mi SSW 25.3 mph 33.4 mph N/A   Mostly Cloudy
1:51 PM 78.8 °F 51.8 °F 39% 29.93 in 10.0 mi SSW 20.7 mph 38.0 mph N/A   Mostly Cloudy
2:51 PM 77.0 °F 52.0 °F 42% 29.90 in 10.0 mi SSW 21.9 mph 34.5 mph N/A   Mostly Cloudy
3:51 PM 79.0 °F 51.1 °F 38% 29.88 in 10.0 mi South 20.7 mph 28.8 mph N/A   Mostly Cloudy
4:51 PM 78.1 °F 48.9 °F 36% 29.87 in 10.0 mi SW 23.0 mph 31.1 mph N/A   Mostly Cloudy
5:51 PM 75.9 °F 53.1 °F 45% 29.85 in 10.0 mi South 17.3 mph 25.3 mph N/A   Mostly Cloudy
6:51 PM 72.0 °F 53.1 °F 51% 29.86 in 10.0 mi South 16.1 mph 23.0 mph N/A   Mostly Cloudy
7:51 PM 69.1 °F 53.1 °F 57% 29.87 in 10.0 mi South 15.0 mph 24.2 mph N/A   Overcast
8:51 PM 68.0 °F 55.0 °F 63% 29.88 in 10.0 mi South 15.0 mph 20.7 mph N/A   Overcast
9:51 PM 66.9 °F 55.0 °F 66% 29.87 in 10.0 mi South 11.5 mph 18.4 mph N/A   Overcast
10:51 PM 66.0 °F 55.9 °F 70% 29.86 in 10.0 mi South 16.1 mph 21.9 mph N/A   Overcast
11:51 PM 64.9 °F 57.0 °F 75% 29.85 in 10.0 mi South 11.5 mph - N/A   Overcast